Location: Monteux
(44.0348°N, 4.9972°E)
Time: 08:37:41
(UTC+00:00)

X-37B - Pass Details

Date: 02 October 2021
Orbit: 385 x 389 km, 45.0° (Epoch: 13 October)

Event Time Altitude Azimuth Distance (km) Brightness Sun altitude
Exits shadow 03:20:32 23° 98° (E) 868 2.9 -25.2°
Drops below altitude 10° 03:21:54 10° 99° (E) 1,412 4.2 -25.0°
Sets 03:23:59 0° 100° (E) 2,266 5.4 -24.7°
